Location: Feydey
(46.3431°N, 7.0106°E)
Time: 05:18:04
(UTC+00:00)

Cosmos 1892 - Visible Passes

Search period start: 26 October 2021 00:00
Search period end: 05 November 2021 00:00
Orbit: 501 x 523 km, 82.5° (Epoch: 25 October)

Date Brightness Start Highest point End Pass type
(mag) Time Alt. Az. Time Alt. Az. Time Alt. Az.
26 Oct 3.0 18:15:22 10° NNW 18:19:06 65° W 18:22:48 10° S visible
27 Oct 2.6 17:59:10 10° N 18:02:57 82° W 18:06:42 10° S visible
28 Oct 2.5 17:43:01 10° N 17:46:47 79° E 17:50:32 10° SSE visible
29 Oct 2.6 17:26:53 10° N 17:30:37 62° E 17:34:19 10° SSE visible
29 Oct 6.3 19:05:23 10° WNW 19:05:41 10° W 19:06:00 10° W visible
30 Oct 2.8 17:10:46 10° N 17:14:26 48° ENE 17:18:04 10° SSE visible
30 Oct 6.1 18:47:57 10° WNW 18:49:37 13° W 18:51:17 10° WSW visible
31 Oct 5.9 05:28:43 10° SE 05:31:09 16° E 05:33:35 10° NE visible
31 Oct 3.1 16:54:41 10° N 16:58:14 38° ENE 17:01:46 10° SSE visible
31 Oct 5.8 18:31:16 10° NW 18:33:33 16° W 18:35:49 10° WSW visible
01 Nov 6.1 05:13:11 10° ESE 05:15:04 13° E 05:16:58 10° NE visible
01 Nov 5.6 18:14:45 10° NW 18:17:27 19° W 18:20:09 10° SW visible
02 Nov 6.4 04:58:03 10° E 04:59:00 11° E 04:59:56 10° ENE visible
02 Nov 5.2 17:58:20 10° NW 18:01:21 23° W 18:04:22 10° SW visible
03 Nov 4.9 17:41:58 10° NNW 17:45:14 29° W 17:48:30 10° SSW visible
04 Nov 4.4 17:25:39 10° NNW 17:29:07 35° W 17:32:34 10° SSW visible
